Weather History for Harlan, KY

Change the Weather History Date:

Tuesday, May 6, 2014

  Actual Average (KLOZ) Record (KLOZ)
Temperature  
Mean Temperature 70 °F 62 °F  
Max Temperature 86 °F 74 °F 88 °F (1959)
Min Temperature 55 °F 51 °F 31 °F (1968)
Degree Days  
Heating Degree Days 0 4  
Month to date heating degree days 28  
Since 1 July heating degree days 4129  
Cooling Degree Days 6 2  
Month to date cooling degree days 7  
Year to date cooling degree days 33  
Growing Degree Days 20 (Base 50)    
Moisture  
Dew Point 49 °F    
Average Humidity 47    
Maximum Humidity 88    
Minimum Humidity 20    
Precipitation  
Precipitation 0.00 in 0.16 in 2.48 in (1984)
Month to date precipitation 0.94  
Year to date precipitation 16.29  
Sea Level Pressure  
Sea Level Pressure 29.95 in    
Wind  
Wind Speed 2 mph (WSW)    
Max Wind Speed 10 mph    
Max Gust Speed 17 mph    
Visibility 10 miles    
Events      
T = Trace of Precipitation, MM = Missing Value Source: NWS Daily Summary

Daily Weather History Graph

Daily Weather History Graph

Search for Another Location

Airport:

Trip Planner

Search our weather history database for the weather conditions in past years. The results will help you decide how hot, cold, wet, or windy it might be!

Date:

Astronomy

May. 06, 2014 Rise Set
Actual Time 6:34 AM EDT 8:26 PM EDT
Civil Twilight 6:05 AM EDT 8:54 PM EDT
Nautical Twilight 5:31 AM EDT 9:29 PM EDT
Astronomical Twilight 4:55 AM EDT 10:05 PM EDT
Moon 12:47 PM EDT (5/6) 1:46 AM EDT (5/6)
Length of Visible Light 14h 49m
Length of Day
13h 52m
Waxing Crescent, 46% of the Moon is Illuminated
May 6
Waxing Crescent
May 6
First Quarter
May 14
Full
May 21
Last Quarter
May 28
New

Hourly Weather History & Observations

Time (EDT) Temp. Dew Point Humidity Pressure Visibility Wind Dir Wind Speed Gust Speed Precip Events Conditions
12:15 AM 62.6 °F 50.0 °F 63% 29.91 in 10.0 mi Calm Calm - N/A   Clear
12:35 AM 62.6 °F 48.2 °F 59% 29.91 in 10.0 mi Calm Calm - N/A   Clear
12:55 AM 60.8 °F 48.2 °F 63% 29.92 in 10.0 mi Calm Calm - N/A   Clear
1:15 AM 60.8 °F 50.0 °F 68% 29.92 in 10.0 mi Calm Calm - N/A   Clear
1:35 AM 59.0 °F 50.0 °F 72% 29.91 in 10.0 mi Calm Calm - N/A   Clear
1:55 AM 57.2 °F 50.0 °F 77% 29.92 in 10.0 mi Calm Calm - N/A   Clear
2:15 AM 59.0 °F 51.8 °F 77% 29.91 in 10.0 mi Calm Calm - N/A   Clear
2:35 AM 59.0 °F 50.0 °F 72% 29.92 in 10.0 mi Calm Calm - N/A   Clear
2:55 AM 59.0 °F 50.0 °F 72% 29.92 in 10.0 mi Calm Calm - N/A   Clear
3:15 AM 59.0 °F 50.0 °F 72% 29.92 in 10.0 mi Calm Calm - N/A   Clear
3:35 AM 59.0 °F 50.0 °F 72% 29.92 in 10.0 mi Calm Calm - N/A   Clear
7:55 AM 55.4 °F 51.8 °F 88% 29.99 in 10.0 mi Calm Calm - N/A   Clear
8:15 AM 59.0 °F 51.8 °F 77% 29.99 in 10.0 mi Calm Calm - N/A   Clear
8:35 AM 62.6 °F 53.6 °F 72% 30.00 in 10.0 mi Calm Calm - N/A   Clear
8:55 AM 64.4 °F 53.6 °F 68% 30.00 in 10.0 mi Calm Calm - N/A   Clear
9:15 AM 68.0 °F 51.8 °F 56% 29.99 in 10.0 mi Calm Calm - N/A   Clear
9:55 AM 71.6 °F 50.0 °F 46% 29.99 in 10.0 mi West 4.6 mph - N/A   Clear
10:15 AM 73.4 °F 50.0 °F 44% 29.99 in 10.0 mi SW 3.5 mph - N/A   Clear
10:35 AM 75.2 °F 50.0 °F 41% 29.99 in 10.0 mi WSW 6.9 mph - N/A   Clear
10:55 AM 77.0 °F 50.0 °F 39% 29.99 in 10.0 mi SW 4.6 mph - N/A   Clear
11:15 AM 77.0 °F 50.0 °F 39% 29.98 in 10.0 mi Calm Calm - N/A   Clear
11:35 AM 77.0 °F 50.0 °F 39% 29.98 in 10.0 mi SW 5.8 mph - N/A   Clear
11:55 AM 78.8 °F 50.0 °F 36% 29.97 in 10.0 mi WSW 6.9 mph - N/A   Clear
12:15 PM 78.8 °F 50.0 °F 36% 29.97 in 10.0 mi Calm Calm - N/A   Clear
12:35 PM 78.8 °F 48.2 °F 34% 29.96 in 10.0 mi SW 5.8 mph - N/A   Clear
12:55 PM 78.8 °F 46.4 °F 32% 29.96 in 10.0 mi SW 9.2 mph - N/A   Clear
1:15 PM 80.6 °F 46.4 °F 30% 29.95 in 10.0 mi SSW 4.6 mph - N/A   Clear
1:35 PM 80.6 °F 46.4 °F 30% 29.94 in 10.0 mi Calm Calm - N/A   Clear
1:55 PM 82.4 °F 46.4 °F 28% 29.94 in 10.0 mi West 6.9 mph - N/A   Clear
2:15 PM 82.4 °F 44.6 °F 26% 29.94 in 7.0 mi SSW 8.1 mph - N/A   Clear
2:35 PM 82.4 °F 46.4 °F 28% 29.94 in 10.0 mi West 8.1 mph - N/A   Clear
2:55 PM 82.4 °F 46.4 °F 28% 29.93 in 10.0 mi West 10.4 mph - N/A   Clear
3:15 PM 84.2 °F 46.4 °F 27% 29.92 in 10.0 mi WSW 8.1 mph - N/A   Clear
3:35 PM 84.2 °F 44.6 °F 25% 29.91 in 10.0 mi SSW 3.5 mph - N/A   Clear
4:15 PM 86.0 °F 42.8 °F 22% 29.91 in 10.0 mi West 6.9 mph 17.3 mph N/A   Clear
4:35 PM 86.0 °F 44.6 °F 23% 29.91 in 10.0 mi WSW 6.9 mph - N/A   Clear
4:55 PM 86.0 °F 42.8 °F 22% 29.91 in 10.0 mi Calm Calm - N/A   Clear
5:15 PM 86.0 °F 41.0 °F 20% 29.91 in 10.0 mi WSW 8.1 mph - N/A   Clear
5:35 PM 84.2 °F 41.0 °F 22% 29.91 in 10.0 mi West 8.1 mph - N/A   Clear
5:55 PM 82.4 °F 41.0 °F 23% 29.91 in 10.0 mi WSW 6.9 mph - N/A   Clear
6:15 PM 82.4 °F 44.6 °F 26% 29.91 in 10.0 mi SW 3.5 mph - N/A   Clear
6:35 PM 82.4 °F 44.6 °F 26% 29.91 in 10.0 mi West 4.6 mph - N/A   Clear
6:55 PM 82.4 °F 46.4 °F 28% 29.91 in 10.0 mi Calm Calm - N/A   Clear
7:15 PM 80.6 °F 48.2 °F 32% 29.92 in 10.0 mi WSW 3.5 mph - N/A   Clear
7:35 PM 80.6 °F 50.0 °F 34% 29.93 in 10.0 mi Calm Calm - N/A   Clear
7:55 PM 78.8 °F 50.0 °F 36% 29.93 in 10.0 mi Calm Calm - N/A   Clear
8:15 PM 77.0 °F 50.0 °F 39% 29.94 in 10.0 mi Calm Calm - N/A   Clear
8:35 PM 77.0 °F 50.0 °F 39% 29.95 in 10.0 mi Calm Calm - N/A   Clear
8:55 PM 73.4 °F 51.8 °F 47% 29.95 in 10.0 mi Calm Calm - N/A   Clear
9:15 PM 71.6 °F 51.8 °F 50% 29.96 in 10.0 mi Calm Calm - N/A   Clear
9:35 PM 69.8 °F 53.6 °F 56% 29.97 in 10.0 mi Calm Calm - N/A   Clear
9:55 PM 69.8 °F 53.6 °F 56% 29.97 in 10.0 mi North - - N/A   Clear
10:15 PM 68.0 °F 53.6 °F 60% 29.98 in 10.0 mi North - - N/A   Clear
10:35 PM 66.2 °F 55.4 °F 68% 29.99 in 10.0 mi Calm Calm - N/A   Clear
10:55 PM 64.4 °F 55.4 °F 73% 29.99 in 10.0 mi Calm Calm - N/A   Clear
11:15 PM 64.4 °F 55.4 °F 73% 29.99 in 10.0 mi Calm Calm - N/A   Clear
11:55 PM 62.6 °F 55.4 °F 77% 30.00 in 10.0 mi Calm Calm - N/A   Clear